Location: Unspecified
(0.0000°N, 0.0000°E)
Time: 22:10:14
(UTC+00:00)

N. Korean satellite - Pass Details

Date: 08 August 2021
Orbit: 449 x 498 km, 97.3° (Epoch: 25 September)

Event Time Altitude Azimuth Distance (km) Brightness Sun altitude
Rises 05:32:45 0° 345° (NNW) 2,454 10.2 -7.9°
Reaches altitude 10° 05:35:15 10° 326° (NW) 1,579 9.0 -7.3°
Maximum altitude 05:37:36 18° 281° (W) 1,179 8.0 -6.7°
Drops below altitude 10° 05:39:58 10° 237° (WSW) 1,576 8.5 -6.2°
Enters shadow 05:41:39 - 221° (SW) 2,143 9.3 -5.8°
